FW5305 Weather Reports


time (UTC)temp
F
wind
direction
speed
knots
gust
knots
rain 1hr
in
rain 24hr
in
rain mn
in
humidity
%
barometer
mb
20220927023052 50 300 0.9 2.6 0.00 0.00 0.00 49 1022.6
20220927021558 50 311 1.7 3.5 0.00 0.00 0.00 48 1022.5
20220927020101 50 306 0.9 2.6 0.00 0.00 0.00 48 1022.6
20220927014601 51 305 0.9 2.6 0.00 0.00 0.00 47 1022.4
20220927013106 52 0 0.0 1.7 0.00 0.00 0.00 45 1022.3
20220927011554 52 304 0.0 2.6 0.00 0.00 0.00 43 1022.2
20220927010052 53 304 1.7 3.5 0.00 0.00 0.00 42 1022.3
20220927004552 54 294 1.7 4.3 0.00 0.00 0.00 39 1022.2
20220927003107 56 317 2.6 7.0 0.00 0.00 0.00 38 1022.1
20220927001559 57 323 3.5 9.6 0.00 0.00 0.00 36 1022.0
20220927000049 57 311 5.2 12.2 0.00 0.00 0.00 35 1022.0
20220926234553 58 349 6.1 11.3 0.00 0.00 0.00 34 1022.1
20220926233058 59 321 7.0 12.2 0.00 0.00 0.00 31 1022.0
20220926231551 61 340 7.8 16.5 0.00 0.00 0.00 29 1021.9
20220926230051 61 321 6.1 16.5 0.00 0.00 0.00 29 1022.1
20220926224608 62 311 9.6 15.6 0.00 0.00 0.00 27 1021.9
20220926223108 62 346 8.7 17.4 0.00 0.00 0.00 25 1021.7
20220926221554 63 342 8.7 17.4 0.00 0.00 0.00 25 1022.0
20220926220111 63 328 11.3 20.9 0.00 0.00 0.00 24 1022.0
20220926214611 63 317 9.6 19.1 0.00 0.00 0.00 23 1021.8
20220926213102 63 324 9.6 19.1 0.00 0.00 0.00 23 1021.8
20220926211553 64 360 9.6 16.5 0.00 0.00 0.00 21 1021.8
20220926210125 64 317 10.4 17.4 0.00 0.00 0.00 21 1021.9
20220926204611 64 328 7.8 16.5 0.00 0.00 0.00 19 1021.9
20220926203105 63 315 8.7 22.6 0.00 0.00 0.00 20 1021.9
20220926201603 63 19 9.6 17.4 0.00 0.00 0.00 20 1022.0
20220926200053 62 299 11.3 20.0 0.00 0.00 0.00 21 1022.0
20220926194649 63 304 9.6 18.2 0.00 0.00 0.00 23 1021.9
20220926193125 63 329 9.6 17.4 0.00 0.00 0.00 26 1021.9
20220926191628 62 330 8.7 19.1 0.00 0.00 0.00 26 1022.2
20220926190052 60 312 7.0 17.4 0.00 0.00 0.00 29 1022.5
20220926184553 60 334 11.3 17.4 0.00 0.00 0.00 28 1022.6
20220926183055 61 302 7.8 13.9 0.00 0.00 0.00 32 1022.9
20220926181611 59 326 7.0 17.4 0.00 0.00 0.00 32 1022.7
20220926180108 59 320 10.4 15.6 0.00 0.00 0.00 34 1022.7
20220926174555 58 302 8.7 17.4 0.00 0.00 0.00 36 1022.8
20220926173053 58 308 9.6 15.6 0.00 0.00 0.00 39 1022.9
20220926171555 57 313 8.7 16.5 0.00 0.00 0.00 40 1023.0
20220926170102 56 300 9.6 20.9 0.00 0.00 0.00 39 1023.0
20220926164640 56 312 8.7 17.4 0.00 0.00 0.00 42 1023.2
20220926163051 55 315 13.0 21.7 0.00 0.00 0.00 43 1023.2
20220926161552 54 341 11.3 20.0 0.00 0.00 0.00 44 1023.1
20220926160054 54 336 8.7 19.1 0.00 0.00 0.00 46 1023.3
20220926154550 53 344 9.6 14.8 0.00 0.00 0.00 48 1023.2
20220926153116 52 327 5.2 13.0 0.00 0.00 0.00 50 1023.3
20220926151554 51 332 7.8 13.0 0.00 0.00 0.00 51 1023.4
20220926150108 50 311 7.8 13.9 0.00 0.00 0.00 51 1023.4
20220926144607 50 334 7.0 14.8 0.00 0.00 0.00 51 1023.3
20220926143116 50 301 7.0 13.9 0.00 0.00 0.00 51 1023.1
20220926141550 50 309 6.1 13.0 0.00 0.00 0.00 52 1023.0
20220926140050 49 284 7.0 12.2 0.00 0.00 0.00 53 1022.9
20220926134606 48 288 6.1 11.3 0.00 0.00 0.00 55 1022.6
20220926133053 47 314 5.2 9.6 0.00 0.00 0.00 56 1022.4
20220926131602 47 298 5.2 9.6 0.00 0.00 0.00 56 1022.3
20220926130105 46 309 3.5 9.6 0.00 0.00 0.00 56 1022.2
20220926124556 46 299 3.5 8.7 0.00 0.00 0.00 57 1022.0
20220926123055 45 270 4.3 8.7 0.00 0.00 0.00 57 1022.0
20220926121551 45 311 2.6 7.8 0.00 0.00 0.00 57 1021.9
20220926120102 45 290 4.3 9.6 0.00 0.00 0.00 57 1021.8
20220926114555 45 286 3.5 8.7 0.00 0.00 0.00 57 1021.5
20220926113050 45 292 3.5 9.6 0.00 0.00 0.00 56 1021.4
20220926111555 45 331 3.5 8.7 0.00 0.00 0.00 57 1021.4
20220926110057 45 321 3.5 8.7 0.00 0.00 0.00 57 1021.5
20220926104629 45 271 4.3 8.7 0.00 0.00 0.00 57 1021.4
20220926103122 45 300 3.5 7.8 0.00 0.00 0.00 57 1021.2
20220926101600 45 299 3.5 7.8 0.00 0.00 0.00 57 1021.1
20220926100051 45 311 2.6 6.1 0.00 0.00 0.00 57 1021.0
20220926094607 45 322 2.6 6.1 0.00 0.00 0.00 56 1021.0
20220926093214 45 304 3.5 7.8 0.00 0.00 0.00 55 1020.9
20220926091550 45 292 4.3 7.8 0.00 0.00 0.00 55 1020.8
20220926090056 46 315 2.6 7.0 0.00 0.00 0.00 55 1020.6
20220926084553 46 304 2.6 7.0 0.00 0.00 0.00 55 1020.6
20220926083120 46 300 3.5 7.8 0.00 0.00 0.00 55 1020.5
20220926081551 47 304 3.5 7.0 0.00 0.00 0.00 54 1020.5
20220926080052 47 302 3.5 7.0 0.00 0.00 0.00 54 1020.4
20220926074553 47 306 2.6 7.8 0.00 0.00 0.00 52 1020.6
20220926073050 48 306 3.5 10.4 0.00 0.00 0.00 52 1020.4
20220926071556 48 290 4.3 8.7 0.00 0.00 0.00 52 1020.5
20220926070051 48 294 4.3 11.3 0.00 0.00 0.00 51 1020.4
20220926064605 49 300 4.3 8.7 0.00 0.00 0.00 51 1020.4
20220926063137 49 321 4.3 9.6 0.00 0.00 0.00 49 1020.4
20220926061552 50 302 4.3 10.4 0.00 0.00 0.00 48 1020.6
20220926060055 50 287 3.5 9.6 0.00 0.00 0.00 48 1020.4
20220926054610 50 315 4.3 7.8 0.00 0.00 0.00 48 1020.5
20220926053052 50 325 4.3 12.2 0.00 0.00 0.00 48 1020.6
20220926051552 51 311 4.3 11.3 0.00 0.00 0.00 49 1020.6
20220926050103 51 311 2.6 7.0 0.00 0.00 0.00 49 1020.5
20220926044558 51 321 4.3 7.8 0.00 0.00 0.00 48 1020.4
20220926043057 51 318 4.3 7.8 0.00 0.00 0.00 48 1020.5
20220926041558 52 325 3.5 8.7 0.00 0.00 0.00 47 1020.6
20220926040105 53 331 5.2 10.4 0.00 0.00 0.00 46 1020.6
20220926034603 54 311 5.2 11.3 0.00 0.00 0.00 45 1020.4
20220926033058 54 311 4.3 9.6 0.00 0.00 0.00 45 1020.2
20220926031607 55 328 7.0 13.0 0.00 0.00 0.00 43 1020.2
20220926030054 55 332 5.2 10.4 0.00 0.00 0.00 43 1020.2
20220926024602 56 315 7.0 15.6 0.00 0.00 0.00 42 1020.1